| time (UTC) | temp F | wind direction | speed knots | gust knots | rain 1hr in | rain 24hr in | rain mn in | humidity % | barometer mb |
| 20260505052623 | 53 | 94 | 2.6 | 7.8 | 0.00 | 0.00 | 0.00 | 52 | 1007.4 |
| 20260505051632 | 54 | 92 | 0.9 | 6.1 | 0.00 | 0.00 | 0.00 | 52 | 1007.3 |
| 20260505050625 | 54 | 108 | 4.3 | 7.0 | 0.00 | 0.00 | 0.00 | 51 | 1007.2 |
| 20260505041622 | 56 | 90 | 0.9 | 1.7 | 0.00 | 0.00 | 0.00 | 51 | 1007.0 |
| 20260505040632 | 56 | 84 | 0.9 | 3.5 | 0.00 | 0.00 | 0.00 | 48 | 1006.8 |
| 20260505035631 | 56 | 104 | 0.9 | 1.7 | 0.00 | 0.00 | 0.00 | 52 | 1006.7 |
| 20260505034624 | 57 | 93 | 0.9 | 3.5 | 0.00 | 0.00 | 0.00 | 48 | 1006.7 |
| 20260505033631 | 57 | 90 | 2.6 | 5.2 | 0.00 | 0.00 | 0.00 | 47 | 1006.6 |
| 20260505032619 | 56 | 72 | 0.0 | 2.6 | 0.00 | 0.00 | 0.00 | 50 | 1006.4 |
| 20260505031630 | 57 | 71 | 1.7 | 4.3 | 0.00 | 0.00 | 0.00 | 52 | 1006.4 |
| 20260505030624 | 59 | 70 | 0.9 | 4.3 | 0.00 | 0.00 | 0.00 | 49 | 1006.2 |
| 20260505025624 | 60 | 61 | 0.0 | 3.5 | 0.00 | 0.00 | 0.00 | 44 | 1006.1 |
| 20260505024615 | 61 | 61 | 0.0 | 2.6 | 0.00 | 0.00 | 0.00 | 43 | 1006.1 |
| 20260505023623 | 62 | 61 | 2.6 | 5.2 | 0.00 | 0.00 | 0.00 | 41 | 1006.0 |
| 20260505022617 | 62 | 343 | 0.0 | 3.5 | 0.00 | 0.00 | 0.00 | 41 | 1005.8 |
| 20260505021627 | 63 | 327 | 1.7 | 4.3 | 0.00 | 0.00 | 0.00 | 40 | 1005.7 |
| 20260505020615 | 64 | 298 | 2.6 | 5.2 | 0.00 | 0.00 | 0.00 | 39 | 1005.5 |
| 20260505015619 | 65 | 321 | 2.6 | 6.1 | 0.00 | 0.00 | 0.00 | 35 | 1005.3 |
| 20260505014628 | 66 | 281 | 1.7 | 5.2 | 0.00 | 0.00 | 0.00 | 36 | 1005.4 |
| 20260505013617 | 67 | 260 | 4.3 | 7.8 | 0.00 | 0.00 | 0.00 | 34 | 1005.5 |
| 20260505012625 | 67 | 234 | 3.5 | 7.0 | 0.00 | 0.00 | 0.00 | 32 | 1005.5 |
| 20260505011620 | 68 | 247 | 3.5 | 7.0 | 0.00 | 0.00 | 0.00 | 30 | 1005.5 |
| 20260505010630 | 69 | 242 | 3.5 | 6.1 | 0.00 | 0.00 | 0.00 | 29 | 1005.5 |
| 20260505005631 | 69 | 29 | 0.9 | 7.8 | 0.00 | 0.00 | 0.00 | 27 | 1005.5 |
| 20260505004620 | 69 | 59 | 2.6 | 9.6 | 0.00 | 0.00 | 0.00 | 27 | 1005.7 |
| 20260505003651 | 68 | 65 | 4.3 | 10.4 | 0.00 | 0.00 | 0.00 | 28 | 1005.7 |
| 20260505002617 | 68 | 70 | 7.0 | 13.0 | 0.00 | 0.00 | 0.00 | 28 | 1005.8 |
| 20260505001627 | 70 | 103 | 0.9 | 8.7 | 0.00 | 0.00 | 0.00 | 29 | 1006.1 |
| 20260505000618 | 70 | 231 | 2.6 | 8.7 | 0.00 | 0.00 | 0.00 | 31 | 1005.9 |
| 20260504235623 | 69 | 238 | 4.3 | 12.2 | 0.00 | 0.00 | 0.00 | 31 | 1005.9 |
| 20260504234632 | 68 | 238 | 6.1 | 12.2 | 0.00 | 0.00 | 0.00 | 31 | 1006.0 |
| 20260504233623 | 68 | 163 | 4.3 | 8.7 | 0.00 | 0.00 | 0.00 | 31 | 1005.9 |
| 20260504232631 | 69 | 215 | 7.0 | 16.5 | 0.00 | 0.00 | 0.00 | 32 | 1006.0 |
| 20260504231627 | 69 | 210 | 9.6 | 15.6 | 0.00 | 0.00 | 0.00 | 32 | 1005.9 |
| 20260504230635 | 69 | 242 | 3.5 | 6.1 | 0.00 | 0.00 | 0.00 | 29 | 1005.7 |
| 20260504225615 | 70 | 253 | 3.5 | 7.0 | 0.00 | 0.00 | 0.00 | 26 | 1005.6 |
| 20260504224625 | 72 | 243 | 3.5 | 7.0 | 0.00 | 0.00 | 0.00 | 23 | 1005.7 |
| 20260504223711 | 72 | 255 | 2.6 | 6.1 | 0.00 | 0.00 | 0.00 | 25 | 1005.7 |